Dewpoint
32 33 33 33 33 33 33 33 33 33 33 33 34 34 34 33 33 32 31 30 29 32 36 36 34 31 32 32 33 36 38 37 34 34 36 35 33 32 32 33 34 34 36
32 32 32 32 32 32 32 32 32 32 32 32 33 33 33 32 32 31 30 30 30 35 35 35 34 32 32 31 32 34 38 37 36 34 34 34 33 34 32 31 31 31 33
32 32 32 32 32 31 31 31 31 31 31 31 32 31 31 31 31 31 30 30 34 34 34 35 35 33 30 30 31 33 37 37 37 36 35 35 34 33 32 32 30 30 31
31 31 32 32 32 31 31 31 31 30 30 30 30 30 31 30 31 31 30 32 34 34 35 36 36 34 30 30 32 34 38 37 36 37 35 33 33 33 34 32 30 30 30
31 31 31 32 32 32 32 31 31 31 30 29 29 29 29 29 29 29 29 32 33 34 35 36 36 36 37 34 35 35 37 36 36 34 32 32 33 32 32 34 32 28 26
30 30 31 32 32 32 31 31 31 31 30 30 29 29 28 28 33 35 34 32 33 34 34 34 35 38 33 36 37 39 37 33 33 32 30 32 32 33 34 33 32 31 28
29 30 30 31 31 31 31 31 31 30 30 30 29 28 28 28 34 36 37 34 34 34 34 33 34 31 32 31 36 37 35 37 36 34 30 33 33 34 34 31 27 31 32
29 29 30 30 30 31 31 31 31 30 30 30 29 28 27 27 34 36 38 35 34 34 33 34 33 31 29 32 33 30 30 31 32 35 35 35 36 34 32 32 32 31 32
29 29 29 30 30 30 30 30 31 30 30 30 29 29 27 27 34 36 36 34 33 33 33 34 31 29 33 35 32 29 29 28 32 36 37 38 38 36 33 29 25 24 27
28 29 29 30 30 30 30 30 31 30 30 30 29 29 31 28 33 36 37 34 33 33 33 34 38 34 36 36 31 29 22 24 28 29 28 30 32 32 36 30 29 24 23
28 30 30 30 30 30 30 31 31 30 30 30 30 30 29 30 31 37 38 34 33 33 33 34 34 35 34 35 34 29 28 29 26 26 26 26 27 27 28 29 29 29 24
29 30 30 30 29 29 30 31 30 30 30 30 30 30 31 31 35 37 38 39 38 34 34 35 34 36 35 34 32 34 32 28 24 25 25 24 24 24 23 25 28 29 30
28 29 29 30 30 29 30 30 30 30 30 30 30 30 31 32 32 37 39 39 40 37 35 36 38 37 36 32 31 32 30 25 23 23 23 24 25 26 26 26 27 27 28
28 28 29 30 30 30 30 31 31 31 31 30 31 30 31 32 32 32 32 36 39 38 39 37 37 36 35 32 30 28 25 26 24 23 23 24 24 25 25 25 25 26 25
28 28 29 30 31 31 31 31 31 31 32 31 31 31 31 31 31 34 33 32 35 36 33 31 29 28 28 27 27 27 26 26 26 25 24 24 24 25 26 26 26 25 24
28 28 29 30 31 32 32 31 37 36 37 39 37 34 33 35 36 38 39 38 39 39 32 30 28 27 26 26 26 26 28 30 27 26 25 24 24 25 26 26 26 25 24
29 28 30 32 31 31 32 32 31 34 40 40 39 40 38 35 39 39 40 40 40 39 31 28 27 27 26 26 26 26 26 27 27 27 25 25 25 25 26 25 25 25 24
30 34 30 31 32 32 32 32 32 31 31 35 40 39 41 41 40 41 42 41 38 38 30 29 27 27 27 27 27 26 27 28 28 27 26 26 26 26 25 24 23 24 24
32 31 31 32 32 33 32 32 32 32 31 31 34 38 41 42 42 41 42 38 35 34 30 28 27 27 27 27 27 28 28 28 28 27 27 27 27 26 24 24 23 26 25
33 35 35 32 32 33 32 32 31 31 31 31 32 33 37 40 39 38 38 36 33 32 30 29 27 27 27 28 28 29 29 29 28 27 27 27 28 27 25 23 23 23 22
34 34 35 34 32 32 32 32 31 31 31 31 31 33 37 37 37 36 36 34 33 31 29 29 28 28 28 28 28 29 29 29 28 28 27 28 28 27 25 24 23 23 23
34 34 33 34 34 32 32 32 31 31 31 31 31 32 37 36 35 35 35 34 33 31 29 28 29 28 29 29 29 29 28 28 28 28 28 28 28 28 25 23 23 23 23
34 34 33 33 34 34 33 32 31 31 31 31 31 31 34 35 34 34 33 33 32 30 29 28 29 29 29 29 29 29 28 28 29 29 28 28 28 27 25 23 23 23 24
34 34 33 32 32 32 33 32 31 32 31 31 31 31 31 34 34 33 32 32 31 30 29 29 29 29 29 29 29 29 29 29 29 30 29 28 28 29 27 23 23 23 24
34 34 33 32 32 32 32 33 32 31 31 31 31 31 31 32 34 33 31 31 30 29 28 29 29 28 28 29 29 29 30 31 30 31 30 29 29 29 26 24 23 24 23
34 34 34 33 33 32 32 32 32 32 31 31 31 31 31 31 32 32 31 30 29 29 29 29 28 28 28 28 29 30 32 32 31 31 29 28 29 29 26 24 24 23 22
Lifted_Index
17 17 17 17 17 18 18 19 19 19 19 19 19 19 18 18 18 18 18 18 17 17 17 17 17 17 17 17 16 14 13 12 12 11 11 11 11 11 11 11 11 10 9
17 17 17 17 17 17 18 19 19 19 19 19 19 19 18 18 18 18 18 18 18 17 17 17 17 17 17 17 16 14 13 12 12 11 11 11 11 11 11 11 11 10 10
16 17 17 17 17 17 17 18 19 19 19 19 19 19 19 19 18 18 18 18 18 18 17 17 17 17 17 17 16 14 13 12 12 12 11 11 12 12 12 11 11 11 10
16 16 16 17 17 17 17 18 18 19 19 19 19 19 19 19 19 18 18 18 18 18 17 17 17 16 17 17 16 15 13 12 12 12 11 11 11 11 11 11 11 11 10
15 15 16 16 17 17 17 17 18 18 18 18 18 18 19 19 19 19 19 18 18 18 17 17 17 16 17 17 16 15 14 13 12 11 10 10 10 10 11 11 11 10 10
14 15 16 16 16 17 17 17 17 18 18 18 18 18 18 19 19 19 19 18 18 17 17 17 17 17 17 17 16 15 15 14 12 11 10 10 10 10 10 10 10 10 9
13 14 15 16 16 16 17 17 17 17 18 18 18 18 18 18 19 19 19 18 18 17 17 18 17 17 17 17 17 16 16 15 13 11 10 9 10 10 11 11 11 10 10
12 13 14 15 15 16 16 17 17 17 17 18 18 18 18 18 19 19 19 18 18 17 18 18 18 18 18 18 17 17 17 16 14 12 10 10 10 10 11 12 11 11 11
11 12 13 14 15 15 16 16 17 17 17 17 18 18 18 18 18 19 19 18 18 18 18 18 18 18 18 18 18 18 17 16 14 12 10 10 10 11 11 12 12 11 11
11 12 13 13 14 15 15 16 16 17 17 17 17 17 18 18 18 18 19 18 18 18 17 18 18 18 18 18 18 18 17 16 14 12 10 10 11 11 12 12 12 12 12
11 12 13 13 14 14 15 15 16 16 17 16 17 17 17 18 18 18 18 18 18 18 18 18 18 18 18 18 18 18 18 16 14 11 10 10 11 12 12 13 13 13 13
10 10 11 12 13 14 14 15 15 16 16 16 16 16 17 17 18 18 18 18 18 18 18 18 18 18 18 18 19 19 18 17 14 12 10 11 12 12 13 13 14 14 14
8 8 9 11 12 13 13 14 14 15 15 15 15 16 16 17 17 18 18 18 17 17 17 17 18 18 18 19 19 19 19 18 15 13 11 12 13 13 14 14 14 14 14
8 8 8 9 10 11 12 13 13 14 14 14 15 15 16 16 17 17 17 17 17 17 17 17 18 18 19 19 20 19 19 18 16 15 14 14 14 14 14 14 14 14 14
8 8 8 7 8 9 10 12 13 13 14 14 14 15 16 16 17 17 17 17 17 17 18 18 18 18 19 20 20 20 19 19 18 17 16 16 15 15 15 15 14 14 13
9 9 8 8 8 8 9 10 12 13 14 14 14 15 15 16 17 17 17 17 17 18 18 18 19 19 19 20 20 20 19 19 19 18 17 17 16 16 16 15 15 14 14
10 9 9 9 8 8 8 9 10 12 13 14 14 15 15 16 16 17 17 17 17 18 18 18 19 19 19 20 20 20 20 19 19 19 18 17 17 17 16 16 15 15 14
10 10 10 9 9 8 8 8 9 11 12 13 14 15 15 15 16 16 17 17 17 17 18 18 19 19 19 20 20 20 20 19 19 19 19 18 17 17 17 16 16 16 15
10 10 10 9 9 8 8 8 8 9 11 12 14 14 15 15 15 16 16 16 17 17 18 18 19 19 20 20 20 20 20 20 19 19 19 18 18 17 17 17 17 16 16
10 9 9 9 9 8 8 8 8 9 10 11 13 14 14 15 15 15 16 16 16 17 18 18 19 19 20 20 20 20 20 20 20 19 19 19 18 17 17 18 18 17 17
9 9 9 9 8 8 8 8 8 9 9 10 12 14 15 14 14 15 15 16 16 17 18 18 19 19 19 20 20 20 20 20 20 19 19 19 18 18 17 18 18 18 18
9 9 9 9 8 8 8 8 9 9 9 10 12 13 14 14 14 14 15 16 16 17 18 19 19 19 19 20 20 20 20 20 20 20 19 19 18 18 17 17 18 18 18
8 8 8 9 9 8 8 8 8 9 9 10 11 13 14 14 14 14 15 15 16 17 18 19 19 19 19 20 20 20 20 20 20 20 19 19 18 18 17 18 18 18 18
8 8 8 8 8 8 8 8 8 9 9 10 11 12 13 14 14 14 15 15 15 16 17 18 19 18 19 20 20 21 21 21 21 20 20 19 18 18 18 18 18 18 18
8 8 7 8 8 9 9 9 9 9 9 9 10 11 13 14 15 15 15 15 15 15 16 18 18 19 19 20 20 21 21 21 21 20 20 19 18 18 18 19 19 18 18
8 8 8 8 8 9 9 9 9 9 9 9 10 11 13 14 15 15 15 15 15 15 16 17 18 19 19 19 20 21 21 21 20 20 19 18 18 18 19 19 19 18 18